Weather History for New York, NY

Change the Weather History Date:

Wednesday, January 22, 2014

  Actual Average Record
Temperature  
Mean Temperature 13 °F 33 °F  
Max Temperature 18 °F 39 °F 57 °F (1959)
Min Temperature 7 °F 26 °F 5 °F (2005)
Degree Days  
Heating Degree Days 52 32  
Month to date heating degree days 736 700  
Since 1 July heating degree days 2343 2306  
Cooling Degree Days 0 0  
Month to date cooling degree days 0 0  
Year to date cooling degree days 0 0  
Moisture  
Dew Point -2 °F    
Average Humidity 57    
Maximum Humidity 70    
Minimum Humidity 43    
Precipitation  
Precipitation T in 0.10 in 1.25 in (1987)
Month to date precipitation 2.29 2.28  
Year to date precipitation 2.29 2.28  
Snow  
Snow T in 0.20 in 11.30 in (1987)
Month to date snowfall 16.1 5.2  
Since 1 July snowfall 23.9 10.7  
Snow Depth 8.00 in    
Sea Level Pressure  
Sea Level Pressure 29.86 in    
Wind  
Wind Speed 19 mph (NNW)    
Max Wind Speed 29 mph    
Max Gust Speed 37 mph    
Visibility 10 miles    
Events Snow    
T = Trace of Precipitation, MM = Missing Value Source: NWS Daily Summary

Daily Weather History Graph

Daily Weather History Graph

Search for Another Location

Airport:

Trip Planner

Search our weather history database for the weather conditions in past years. The results will help you decide how hot, cold, wet, or windy it might be!

Date:

Astronomy

Jan. 22, 2014 Rise Set
Actual Time 7:13 AM EST 5:00 PM EST
Civil Twilight 6:44 AM EST 5:30 PM EST
Nautical Twilight 6:10 AM EST 6:03 PM EST
Astronomical Twilight 5:38 AM EST 6:36 PM EST
Moon 11:33 PM EST (1/22) 10:11 AM EST (1/22)
Length of Visible Light 10h 46m
Length of Day
9h 47m
Waning Gibbous, 65% of the Moon is Illuminated
Jan 22
Waning Gibbous
Jan 24
Last Quarter
Jan 30
New
Feb 6
First Quarter
Feb 14
Full

Hourly Weather History & Observations

Time (EST) Temp. Windchill Dew Point Humidity Pressure Visibility Wind Dir Wind Speed Gust Speed Precip Events Conditions
12:51 AM 12.9 °F -5.7 °F 3.0 °F 65% 29.81 in 9.0 mi North 21.9 mph 27.6 mph 0.00 in Snow Light Snow
1:51 AM 12.9 °F -3.9 °F 1.0 °F 59% 29.81 in 10.0 mi North 17.3 mph 27.6 mph 0.00 in Snow Light Snow
2:51 AM 12.0 °F -8.1 °F 1.0 °F 61% 29.79 in 6.0 mi North 25.3 mph 35.7 mph 0.00 in Snow Light Snow
3:51 AM 10.9 °F -7.9 °F -0.0 °F 61% 29.80 in 9.0 mi North 20.7 mph 29.9 mph 0.00 in Snow Light Snow
4:51 AM 10.0 °F -8.1 °F -2.0 °F 58% 29.81 in 10.0 mi North 18.4 mph 31.1 mph 0.00 in Snow Light Snow
5:51 AM 9.0 °F -10.5 °F -2.9 °F 59% 29.81 in 10.0 mi North 20.7 mph 25.3 mph N/A   Overcast
6:51 AM 9.0 °F -7.9 °F -4.0 °F 56% 29.82 in 10.0 mi North 15.0 mph 26.5 mph N/A   Overcast
7:51 AM 8.1 °F -10.2 °F -4.0 °F 58% 29.83 in 10.0 mi NNW 17.3 mph 29.9 mph N/A   Mostly Cloudy
8:51 AM 7.0 °F -14.5 °F -4.0 °F 61% 29.82 in 10.0 mi NNW 24.2 mph 31.1 mph N/A   Mostly Cloudy
9:51 AM 8.1 °F -14.2 °F -4.0 °F 58% 29.82 in 9.0 mi NNW 27.6 mph 32.2 mph N/A   Scattered Clouds
10:51 AM 10.0 °F -11.1 °F -4.0 °F 53% 29.82 in 10.0 mi NNW 26.5 mph 31.1 mph N/A   Scattered Clouds
11:51 AM 12.0 °F -6.0 °F -4.0 °F 49% 29.82 in 10.0 mi NW 19.6 mph 28.8 mph N/A   Scattered Clouds
12:51 PM 15.1 °F -0.6 °F -2.9 °F 45% 29.81 in 10.0 mi NNW 16.1 mph 21.9 mph N/A   Scattered Clouds
1:51 PM 16.0 °F 1.7 °F -2.9 °F 43% 29.82 in 10.0 mi NW 13.8 mph 23.0 mph N/A   Scattered Clouds
2:51 PM 17.1 °F 3.0 °F -2.9 °F 41% 29.83 in 10.0 mi NW 13.8 mph 21.9 mph N/A   Partly Cloudy
3:51 PM 18.0 °F 2.6 °F -2.0 °F 41% 29.85 in 10.0 mi WNW 17.3 mph - N/A   Partly Cloudy
4:51 PM 18.0 °F 3.6 °F -0.9 °F 44% 29.87 in 10.0 mi NW 15.0 mph - N/A   Partly Cloudy
5:51 PM 17.1 °F 1.0 °F -2.0 °F 43% 29.90 in 10.0 mi NW 18.4 mph - N/A   Partly Cloudy
6:51 PM 16.0 °F -0.9 °F -2.0 °F 45% 29.92 in 10.0 mi NW 19.6 mph 26.5 mph N/A   Scattered Clouds
7:51 PM 15.1 °F -1.6 °F -2.0 °F 47% 29.94 in 10.0 mi NW 18.4 mph 25.3 mph N/A   Scattered Clouds
8:51 PM 12.9 °F -3.9 °F -2.9 °F 49% 29.96 in 10.0 mi NNW 17.3 mph 24.2 mph N/A   Scattered Clouds
9:51 PM 12.0 °F -2.0 °F -4.0 °F 49% 29.99 in 10.0 mi NNW 11.5 mph - N/A   Partly Cloudy
10:51 PM 10.9 °F -5.4 °F -4.0 °F 51% 30.00 in 10.0 mi NNW 15.0 mph 21.9 mph N/A   Partly Cloudy
11:51 PM 10.0 °F -6.5 °F -4.0 °F 53% 30.01 in 10.0 mi NW 15.0 mph - N/A   Mostly Cloudy